STARLINK-1447 (45664 NORAD) Tracking and Keplerian Element Data

This shows tracking and keplerian element data for the satellite.

Feedback or suggestion? Click here.




ElementValue
Catalog45664
NameSTARLINK-1447
Epoch Orbit568
Epoch Day186.50001157
Epoch Year2020
RAAN20.3106
Inclination53.0031
Eccentricity0.0001679
Argument of Perigee84.9717
Mean Anonmoly111.8149
Mean Motion15.57005594
Decay Rate0.00029268
L11 45664U 20035H 20186.50001157 .00029268 00000-0 40335-3 0 9996
L22 45664 53.0031 20.3106 0001679 84.9717 111.8149 15.57005594 5685

Live tracking and technical data element details for STARLINK-1447 (NORAD 45664). STARLINK-1447 can be tracked NOW for your location showing map with azimuth and elevation plus other details from your city location.

Track the satellite on the map from your city or location and see movement details for azimuth, elevation, latitude, longitude, range, height, and movement on the map or in text.







IsCatalogInMostPopularTable: catalog: 45664, numindb: 7
Update: records affected: 1



GetName: 45664 STARLINK-1447

Hit Count: updated at: Sun, 05 Jul 2020 16:48:23 GMT